This demonstration page uses our WeatherBlox Daily Observations layout. Learn more.

Left ArrowRight Arrow

39.01783, -85.05884

Hourly Observations for March 2, 2015

Temp ( °F °C ) Dew Point ( °F °C ) Humidity (%) Winds ( mph kmh ) Pressure ( in mb ) Visibility ( mi km ) Precip ( " mm )
12:41 am 00:41 Mostly Cloudy 30 -1 25 -4 80 80 WNW 14 22 30.39 1029 9 14 0.00 0.00
12:52 am 00:52 Mostly Cloudy 31 -0.6 25 -3.9 79 79 WNW 16 26 30.36 1028 9 14 0.00 0.00
1:52 am 01:52 Cloudy 29 -1.7 22 -5.6 75 75 NW 17 28 30.37 1029 9 14 0.00 0.00
2:52 am 02:52 Cloudy 27 -2.8 20 -6.7 75 75 NW 17 28 30.39 1029 10 16 0.00 0.00
3:38 am 03:38 Mostly Cloudy 25 -4 18 -8 74 74 NW 17 28 30.48 1032 10 16 0.00 0.00
3:52 am 03:52 Clear 24 -4.4 18 -7.8 77 77 NW 14 22 30.42 1030 10 16 0.00 0.00
4:52 am 04:52 Mostly Cloudy 23 -5 17 -8.3 78 78 WNW 7 11 30.44 1031 10 16 0.00 0.00
5:52 am 05:52 Partly Cloudy 23 -5 17 -8.3 78 78 WNW 12 19 30.47 1032 8 13 0.00 0.00
6:52 am 06:52 Mostly Cloudy 22 -5.6 16 -8.9 78 78 NW 7 11 30.50 1033 10 16 0.00 0.00
7:52 am 07:52 Cloudy 21 -6.1 15 -9.4 78 78 NNW 5 7 30.51 1033 7 11 0.00 0.00
8:52 am 08:52 Mostly Cloudy 23 -5 14 -10 68 68 N 5 7 30.53 1034 8 13 0.00 0.00
9:52 am 09:52 Mostly Cloudy 25 -3.9 15 -9.4 66 66 N 3 6 30.54 1034 10 16 0.00 0.00
10:52 am 10:52 Mostly Cloudy 29 -1.7 15 -9.4 56 56 NNE 8 13 30.55 1034 9 14 0.00 0.00
11:52 am 11:52 Mostly Cloudy 29 -1.7 17 -8.3 61 61 Calm 30.55 1034 9 14 0.00 0.00
12:52 pm 12:52 Mostly Cloudy 32 0 16 -8.9 52 52 W 3 6 30.53 1034 10 16 0.00 0.00
1:52 pm 13:52 Mostly Cloudy 32 0 15 -9.4 50 50 Calm 30.49 1032 10 16 0.00 0.00
2:52 pm 14:52 Mostly Cloudy 34 1.1 14 -10 44 44 NNW 3 6 30.47 1032 10 16 0.00 0.00
3:52 pm 15:52 Mostly Cloudy 35 1.7 14 -10 42 42 NNW 3 6 30.46 1032 10 16 0.00 0.00
4:52 pm 16:52 Mostly Cloudy 33 0.6 14 -10 45 45 E 6 9 30.44 1031 10 16 0.00 0.00
5:52 pm 17:52 Mostly Cloudy 33 0.6 13 -10.6 43 43 NNE 3 6 30.44 1031 10 16 0.00 0.00
6:52 pm 18:52 Mostly Cloudy 32 0 14 -10 47 47 NNE 7 11 30.45 1031 10 16 0.00 0.00
7:52 pm 19:52 Partly Cloudy 31 -0.6 15 -9.4 52 52 ENE 7 11 30.44 1031 10 16 0.00 0.00
8:52 pm 20:52 Cloudy 30 -1.1 16 -8.9 56 56 E 9 15 30.40 1030 10 16 0.00 0.00
9:52 pm 21:52 Cloudy 29 -1.7 17 -8.3 61 61 E 8 13 30.37 1029 10 16 0.00 0.00
10:52 pm 22:52 Cloudy 28 -2.2 17 -8.3 63 63 E 7 11 30.37 1028 10 16 0.00 0.00
11:52 pm 23:52 Cloudy 27 -2.8 16 -8.9 63 63 E 8 13 30.32 1027 10 16 0.00 0.00

Powered by AerisWeather